[[{"header":{"parameterUnit":"m.s-1","parameterCategory":1,"la1":30.2991,"la2":30.254,"lo1":-89.0895,"lo2":-89.0444,"dy":0.0017,"dx":0.0017,"nx":28,"ny":28,"refTime":"2024-03-30T03:00:00:Z","depth":0,"parameterNumber":2,"parameterNumberName":"U-component_of_WINDS"},"data":[0,0,0,0,0,0,0,0,0,0,0,0,0,0,0,0,0,0,0,0,0,0,0,0,0,0,0,0,0,0,0,0,0,0,0,0,0,0,0,0,0,0,0,0,0,0,0,0,0,0,0,0,0,0,0,0,0,0,-1.4144,-1.4143,0,-1.4073,-1.4072,-1.4072,-1.4011,-1.401,-1.401,-1.4009,-1.3936,-1.3935,-1.3934,0,0,0,0,0,0,0,0,0,0,0,0,0,-1.4228,-1.4227,-1.4144,-1.4143,-1.4142,-1.4073,-1.4072,-1.4071,-1.4011,-1.401,-1.401,-1.4009,-1.3937,-1.3935,-1.3934,0,0,0,0,0,0,0,0,0,0,0,0,0,-1.4178,-1.4227,-1.4144,-1.4104,-1.41,-1.4074,-1.4072,-1.4071,-1.4011,-1.401,-1.4009,-1.4008,-1.3937,-1.3935,-1.3933,-1.3941,0,0,-1.3927,-1.3927,0,0,0,0,0,0,0,0,-1.4181,-1.4175,-1.4111,-1.4107,-1.4102,-1.405,-1.4075,-1.4028,-1.4012,-1.4045,-1.4009,-1.4008,-1.3975,-1.397,-1.3959,-1.3938,-1.3935,-1.3927,-1.3926,-1.3925,-1.3925,0,0,0,0,0,0,0,-1.4185,-1.4178,-1.4116,-1.411,-1.4105,-1.409,-1.4082,-1.4066,-1.4016,-1.4042,-1.4037,-1.403,-1.3972,-1.3961,-1.3957,-1.3934,-1.3927,-1.3926,-1.3924,-1.3924,-1.3916,-1.3917,0,0,0,0,0,0,-1.4194,-1.4181,-1.4118,-1.4114,-1.414,-1.4089,-1.408,-1.4068,-1.4016,-1.4008,-1.4031,-1.4027,-1.3965,-1.3959,-1.3954,-1.3959,-1.3925,-1.3923,-1.3922,-1.3915,-1.3916,-1.3917,0,0,0,0,0,0,-1.4196,-1.4189,-1.4121,-1.4146,-1.4136,-1.4089,-1.4076,-1.4067,-1.4055,-1.4008,-1.3999,-1.4028,-1.3964,-1.3957,-1.3945,-1.3956,-1.3923,-1.3921,-1.3914,-1.3915,-1.3917,-1.397,0,0,0,0,0,0,-1.4199,-1.419,-1.4193,-1.4147,-1.4135,-1.4114,-1.4076,-1.4066,-1.4052,-1.4047,-1.4003,-1.3995,-1.3962,-1.3948,-1.3943,-1.3952,-1.3919,-1.3913,-1.3914,-1.3916,-1.3967,-1.3973,-1.3979,0,0,0,0,0,-1.4202,-1.4211,-1.4193,-1.4186,-1.4137,-1.4114,-1.4108,-1.407,-1.4053,-1.4055,-1.4025,-1.3996,-1.3956,-1.3947,-1.3941,-1.395,-1.3912,-1.3914,-1.3916,-1.3965,-1.3972,-1.3979,0,0,0,0,0,0,-1.4259,-1.4204,-1.4184,-1.4178,-1.4151,-1.4104,-1.4105,-1.4079,-1.4057,-1.4053,-1.4008,-1.3998,-1.3992,-1.397,-1.3961,-1.3955,-1.393,-1.3931,-1.3969,-1.3976,-1.3982,-1.3986,-1.3918,0,0,0,0,0,-1.4271,-1.4256,-1.4209,-1.4208,-1.4196,-1.4153,-1.4142,-1.4115,-1.4086,-1.4074,-1.4043,-1.4016,-1.3997,-1.3986,-1.3966,-1.3965,-1.3954,-1.3968,-1.3974,-1.3978,-1.3979,-1.3977,-1.3982,-1.3924,-1.3924,-1.3924,0,0,-1.4295,-1.4263,-1.4257,-1.4219,-1.4195,-1.4182,-1.4144,-1.4131,-1.4121,-1.4072,-1.4059,-1.4036,-1.4002,-1.3996,-1.3992,-1.3978,-1.3993,-1.3981,-1.3985,-1.3984,-1.398,-1.3985,-1.399,-1.3926,-1.3926,-1.3925,0,0,-1.4331,-1.4306,-1.4302,-1.428,-1.4244,-1.4216,-1.4215,-1.4172,-1.4155,-1.4141,-1.4105,-1.4092,-1.406,-1.4038,-1.4022,-1.4052,-1.4024,-1.4047,-1.4076,-1.4074,-1.4079,-1.4082,-1.4092,-1.4096,-1.4048,-1.4048,-1.4049,0,-1.4365,-1.4343,-1.4304,-1.4293,-1.4277,-1.4234,-1.423,-1.421,-1.417,-1.416,-1.4146,-1.4105,-1.408,-1.4067,-1.4075,-1.4064,-1.4061,-1.4051,-1.4081,-1.4084,-1.4087,-1.4096,-1.41,-1.4051,-1.4051,-1.4051,-1.405,0,-1.4387,-1.4372,-1.4373,-1.4336,-1.4321,-1.4314,-1.4273,-1.4263,-1.4238,-1.4211,-1.4198,-1.4166,-1.4139,-1.4134,-1.411,-1.4119,-1.4111,-1.409,-1.4063,-1.4096,-1.4104,-1.4107,-1.4055,-1.4054,-1.4054,-1.4053,0,0,-1.4455,-1.4397,-1.4398,-1.438,-1.4339,-1.4327,-1.4318,-1.4291,-1.4283,-1.4258,-1.4249,-1.4224,-1.4203,-1.4186,-1.4159,-1.4158,-1.4182,-1.4136,-1.4135,-1.4145,-1.4189,-1.4205,-1.4209,-1.4165,-1.4165,-1.4166,-1.4192,0,-1.4484,-1.4465,-1.443,-1.4422,-1.4408,-1.4367,-1.4359,-1.4333,-1.4308,-1.4293,-1.4266,-1.4248,-1.4223,-1.4213,-1.421,-1.418,-1.4191,-1.4178,-1.4155,-1.4155,-1.4164,-1.4213,-1.423,-1.4256,-1.4195,-1.4195,-1.4195,0,-1.4515,-1.4492,-1.4483,-1.4442,-1.4435,-1.4429,-1.4401,-1.4387,-1.4357,-1.4339,-1.4321,-1.4291,-1.428,-1.4257,-1.424,-1.4233,-1.4222,-1.4206,-1.4206,-1.4201,-1.4176,-1.4209,-1.4263,-1.4267,-1.42,-1.4199,-1.4199,0,-1.4565,-1.4532,-1.4521,-1.4508,-1.4461,-1.4457,-1.4438,-1.4406,-1.4393,-1.437,-1.436,-1.4336,-1.4323,-1.4305,-1.427,-1.4257,-1.4257,-1.4231,-1.4242,-1.4243,-1.4242,-1.4243,-1.4294,-1.4238,-1.4238,-1.4238,-1.4238,0,-1.46,-1.4596,-1.4543,-1.4537,-1.4531,-1.4491,-1.4487,-1.4463,-1.4436,-1.4425,-1.4389,-1.4379,-1.4334,-1.4319,-1.4292,-1.4282,-1.4277,-1.4262,-1.4254,-1.4264,-1.4266,-1.4255,-1.4252,-1.4239,-1.4238,-1.4238,-1.4238,0,-1.4654,-1.4619,-1.4605,-1.4562,-1.4551,-1.4549,-1.4512,-1.4504,-1.4478,-1.4464,-1.4459,-1.4417,-1.4398,-1.4362,-1.4332,-1.4314,-1.431,-1.4297,-1.432,-1.4315,-1.4327,-1.4326,-1.4373,-1.4376,-1.4319,-1.4319,-1.432,0,-1.4678,-1.4674,-1.463,-1.462,-1.4602,-1.4586,-1.4572,-1.4533,-1.452,-1.4486,-1.4482,-1.446,-1.444,-1.4411,-1.4379,-1.4356,-1.4342,-1.436,-1.4338,-1.4349,-1.4341,-1.4342,-1.4341,-1.4365,-1.4366,-1.4366,-1.4367,0,-1.4724,-1.4707,-1.4688,-1.4664,-1.4648,-1.4627,-1.4604,-1.4597,-1.4553,-1.4541,-1.452,-1.4505,-1.4475,-1.4453,-1.4426,-1.4406,-1.4379,-1.4374,-1.4375,-1.4385,-1.4397,-1.439,-1.4332,-1.4373,-1.4372,-1.4372,-1.4371,-1.4371,-1.4763,-1.4757,-1.4726,-1.4706,-1.4685,-1.4664,-1.4655,-1.4628,-1.461,-1.4583,-1.4561,-1.4543,-1.4513,-1.4474,-1.4455,-1.444,-1.4427,-1.4429,-1.4429,-1.443,-1.4434,-1.4401,-1.4435,-1.4435,-1.4435,-1.4435,-1.4434,0,-1.4807,-1.4785,-1.4767,-1.4736,-1.4721,-1.4697,-1.4671,-1.4659,-1.4643,-1.4618,-1.4599,-1.4576,-1.4555,-1.4522,-1.4498,-1.4492,-1.448,-1.4487,-1.4487,-1.4483,-1.4447,-1.4448,-1.4498,-1.4498,-1.4498,-1.4498,-1.4498,-1.4498,-1.4827,-1.4816,-1.4796,-1.4774,-1.4752,-1.4733,-1.472,-1.4701,-1.4681,-1.4657,-1.4639,-1.4617,-1.4588,-1.4563,-1.4542,-1.4533,-1.4526,-1.4537,-1.4524,-1.4491,-1.4485,-1.4479,-1.448,-1.4536,-1.4536,-1.4561,-1.4561,-1.4561]},{"header":{"parameterUnit":"m.s-1","parameterCategory":1,"la1":30.2991,"la2":30.254,"lo1":-89.0895,"lo2":-89.0444,"dy":0.0017,"dx":0.0017,"nx":28,"ny":28,"refTime":"2024-03-30T03:00:00:Z","depth":0,"parameterNumber":3,"parameterNumberName":"V-component_of_WINDS"},"data":[0,0,0,0,0,0,0,0,0,0,0,0,0,0,0,0,0,0,0,0,0,0,0,0,0,0,0,0,0,0,0,0,0,0,0,0,0,0,0,0,0,0,0,0,0,0,0,0,0,0,0,0,0,0,0,0,0,0,3.158,3.158,0,3.1516,3.1516,3.1515,3.1528,3.1529,3.153,3.1531,3.1462,3.1459,3.1456,0,0,0,0,0,0,0,0,0,0,0,0,0,3.1712,3.171,3.1581,3.158,3.1579,3.1516,3.1516,3.1515,3.1527,3.1529,3.153,3.1532,3.1463,3.146,3.1456,0,0,0,0,0,0,0,0,0,0,0,0,0,3.1652,3.1709,3.1581,3.1578,3.1577,3.1517,3.1516,3.1514,3.1527,3.1529,3.1531,3.1532,3.1464,3.146,3.1456,3.1393,0,0,3.1442,3.144,0,0,0,0,0,0,0,0,3.1655,3.1647,3.1579,3.1578,3.1577,3.1532,3.1537,3.1474,3.1527,3.1546,3.1531,3.1533,3.1484,3.1478,3.1462,3.139,3.1387,3.1442,3.1439,3.1437,3.1436,0,0,0,0,0,0,0,3.166,3.165,3.1555,3.1578,3.1577,3.1579,3.1573,3.1525,3.1506,3.1544,3.1545,3.1538,3.1483,3.1466,3.146,3.1386,3.1442,3.1438,3.1435,3.1434,3.1261,3.1259,0,0,0,0,0,0,3.1665,3.1653,3.1557,3.1553,3.1621,3.1575,3.1568,3.1544,3.1506,3.1502,3.1536,3.1538,3.1473,3.1465,3.1458,3.1383,3.1437,3.1433,3.1431,3.1263,3.1261,3.1259,0,0,0,0,0,0,3.1668,3.1656,3.156,3.1603,3.1591,3.1571,3.1545,3.1542,3.1525,3.15,3.1496,3.1522,3.1474,3.1464,3.141,3.1381,3.1431,3.1427,3.1265,3.1262,3.126,3.1233,0,0,0,0,0,0,3.1672,3.1657,3.1634,3.1603,3.1589,3.1513,3.1543,3.154,3.1518,3.152,3.1486,3.1482,3.1474,3.1416,3.1405,3.1376,3.1424,3.1268,3.1264,3.1261,3.1237,3.123,3.1224,0,0,0,0,0,3.1676,3.1628,3.1633,3.1621,3.1559,3.1511,3.1503,3.1497,3.1515,3.1491,3.1476,3.1483,3.1386,3.1411,3.1398,3.1367,3.127,3.1265,3.1261,3.1239,3.1231,3.1224,0,0,0,0,0,0,3.1655,3.1624,3.1629,3.1569,3.1543,3.1514,3.1483,3.1488,3.1455,3.1459,3.1451,3.1443,3.1388,3.1372,3.14,3.1306,3.133,3.1323,3.1318,3.131,3.1304,3.1309,3.142,0,0,0,0,0,3.1643,3.1608,3.1582,3.1532,3.1519,3.1503,3.1482,3.148,3.1452,3.1441,3.1421,3.1393,3.1356,3.1332,3.1297,3.1234,3.1227,3.1207,3.1201,3.1196,3.119,3.1156,3.1147,3.1244,3.1244,3.1244,0,0,3.1619,3.1597,3.1575,3.1527,3.1507,3.147,3.1494,3.1453,3.1426,3.1434,3.1382,3.1367,3.1335,3.1277,3.125,3.1261,3.1161,3.119,3.1186,3.1183,3.1151,3.1142,3.1134,3.1241,3.1242,3.1242,0,0,3.1555,3.1535,3.1492,3.1472,3.1441,3.1431,3.1421,3.1391,3.1381,3.1329,3.1335,3.1302,3.1239,3.1216,3.1197,3.1126,3.1132,3.1115,3.1082,3.105,3.1042,3.1035,3.1011,3.1002,3.1109,3.1109,3.1109,0,3.1528,3.1474,3.1469,3.1429,3.1408,3.1415,3.1371,3.1351,3.1309,3.1294,3.1308,3.123,3.1209,3.1146,3.113,3.1113,3.1101,3.1119,3.1044,3.1037,3.103,3.1007,3.0998,3.1107,3.1107,3.1107,3.1108,0,3.1443,3.1405,3.1374,3.1336,3.1311,3.1269,3.1257,3.1232,3.1232,3.1221,3.1168,3.1143,3.1104,3.1089,3.1087,3.1026,3.1034,3.1046,3.1071,3.1019,3.0998,3.0989,3.1104,3.1105,3.1106,3.1106,0,0,3.1364,3.1325,3.1313,3.1297,3.1264,3.1234,3.1192,3.1155,3.1135,3.1106,3.1071,3.1018,3.1029,3.1007,3.1003,3.0974,3.0922,3.099,3.0989,3.0979,3.0853,3.0845,3.0835,3.0925,3.0923,3.0922,3.0856,0,3.1298,3.1226,3.1221,3.1156,3.1121,3.1128,3.1091,3.1067,3.1055,3.1024,3.101,3.0974,3.099,3.0977,3.0949,3.0934,3.0896,3.0938,3.0892,3.0891,3.0901,3.0824,3.0815,3.0754,3.0848,3.0846,3.0845,0,3.1212,3.1183,3.1114,3.1088,3.1073,3.1041,3.1007,3.0977,3.0949,3.0943,3.0919,3.0919,3.0876,3.0902,3.0843,3.0872,3.0852,3.0842,3.084,3.0835,3.0865,3.0818,3.0734,3.0726,3.0831,3.0832,3.0833,0,3.1163,3.1106,3.1058,3.1043,3.1011,3.0988,3.0973,3.0948,3.0926,3.0896,3.0882,3.0847,3.0827,3.08,3.0791,3.0811,3.0732,3.0757,3.0726,3.0726,3.0709,3.0711,3.0622,3.0695,3.0696,3.0696,3.0696,0,3.1091,3.1049,3.1036,3.1006,3.096,3.0954,3.0908,3.0894,3.0871,3.0839,3.0842,3.0812,3.0801,3.0769,3.0761,3.0714,3.0705,3.0698,3.0697,3.0698,3.0699,3.0686,3.069,3.0693,3.0694,3.0694,3.0695,0,3.1027,3.1017,3.0966,3.0939,3.0932,3.0899,3.0876,3.0848,3.0837,3.0796,3.0786,3.0769,3.0732,3.072,3.0673,3.0668,3.0613,3.0615,3.0623,3.0623,3.0593,3.0596,3.0493,3.048,3.0561,3.056,3.056,0,3.0983,3.0951,3.0922,3.0901,3.0886,3.0852,3.0831,3.0824,3.0801,3.0768,3.0744,3.0707,3.0677,3.0616,3.0599,3.0564,3.0566,3.0532,3.056,3.0564,3.0566,3.0569,3.0566,3.0527,3.0526,3.0525,3.0525,0,3.0904,3.0901,3.0871,3.0838,3.0813,3.0787,3.0762,3.0744,3.0734,3.0708,3.0671,3.0648,3.0601,3.0565,3.0529,3.0513,3.0517,3.0516,3.0507,3.0509,3.0515,3.0513,3.061,3.0519,3.0519,3.052,3.052,3.052,3.0849,3.0822,3.0798,3.0764,3.0745,3.0722,3.0694,3.0681,3.065,3.0613,3.061,3.057,3.0544,3.0497,3.0479,3.0447,3.0456,3.0443,3.044,3.0437,3.0435,3.052,3.044,3.044,3.044,3.0441,3.0441,0,3.0772,3.0758,3.0727,3.0692,3.0666,3.0673,3.0646,3.0623,3.0588,3.0564,3.0535,3.0492,3.0456,3.0437,3.0402,3.038,3.0381,3.0371,3.0373,3.0369,3.0428,3.044,3.0371,3.0371,3.0371,3.0371,3.0371,3.0371,3.0729,3.0684,3.0678,3.0623,3.0608,3.057,3.0554,3.0532,3.0513,3.0466,3.0437,3.0425,3.0403,3.0367,3.0335,3.033,3.0317,3.0306,3.0302,3.0358,3.0365,3.0372,3.0383,3.0303,3.0303,3.0247,3.0246,3.0246]}]]